• In Belarus
  • List of Countries
  • For 7 days
  • Water Temperature
  • Satellite Maps
  • Weather Map
  • Weather Widgets
  • user-avatar
    Login

    Hourly Weather Channapatna

    Today, 16 January, Wednesday

    Time Temperature Precipitation Wind Pressure Humidity
    00:00 +19°C° 0 mm 3 mps 704 mmHg 61%
    01:00 +19°C° 0 mm 3 mps 703 mmHg 66%
    02:00 +18°C° 0 mm 2 mps 703 mmHg 72%
    03:00 +18°C° 0 mm 2 mps 703 mmHg 72%
    04:00 +17°C° 0 mm 2 mps 703 mmHg 73%
    05:00 +17°C° 0 mm 2 mps 703 mmHg 73%
    06:00 +18°C° 0 mm 2 mps 703 mmHg 67%
    07:00 +19°C° 0 mm 3 mps 704 mmHg 60%
    08:00 +20°C° 0 mm 3 mps 704 mmHg 54%
    09:00 +24°C° 0 mm 3 mps 704 mmHg 45%
    10:00 +26°C° 0 mm 3 mps 705 mmHg 36%
    11:00 +28°C° 0 mm 4 mps 705 mmHg 28%
    12:00 +29°C° 0 mm 3 mps 704 mmHg 25%
    13:00 +30°C° 0 mm 3 mps 704 mmHg 23%
    14:00 +31°C° 0 mm 3 mps 703 mmHg 21%
    15:00 +31°C° 0 mm 3 mps 703 mmHg 23%
    16:00 +30°C° 0 mm 2 mps 703 mmHg 25%
    17:00 +30°C° 0 mm 2 mps 702 mmHg 27%
    18:00 +28°C° 0 mm 2 mps 703 mmHg 31%
    19:00 +26°C° 0 mm 3 mps 703 mmHg 36%
    20:00 +24°C° 0 mm 3 mps 703 mmHg 40%
    21:00 +22°C° 0 mm 3 mps 703 mmHg 47%
    22:00 +21°C° 0 mm 3 mps 703 mmHg 53%
    23:00 +20°C° 0 mm 3 mps 703 mmHg 60%

    Tomorrow, 17 January, Thursday

    Time Temperature Precipitation Wind Pressure Humidity
    00:00 +20°C° 0 mm 3 mps 703 mmHg 66%
    01:00 +19°C° 0 mm 3 mps 703 mmHg 73%
    02:00 +18°C° 0 mm 3 mps 702 mmHg 80%
    03:00 +18°C° 0 mm 2 mps 702 mmHg 82%
    04:00 +17°C° 0 mm 2 mps 702 mmHg 84%
    05:00 +17°C° 0 mm 2 mps 702 mmHg 87%
    06:00 +18°C° 0 mm 2 mps 703 mmHg 81%
    07:00 +19°C° 0 mm 2 mps 703 mmHg 75%
    08:00 +20°C° 0 mm 2 mps 704 mmHg 69%
    09:00 +24°C° 0 mm 3 mps 704 mmHg 57%
    10:00 +26°C° 0 mm 3 mps 704 mmHg 45%
    11:00 +28°C° 0 mm 4 mps 704 mmHg 34%
    12:00 +30°C° 0 mm 4 mps 704 mmHg 30%
    13:00 +31°C° 0 mm 3 mps 703 mmHg 27%
    14:00 +33°C° 0 mm 3 mps 702 mmHg 23%
    15:00 +31°C° 0 mm 3 mps 702 mmHg 26%
    16:00 +30°C° 0 mm 3 mps 702 mmHg 28%
    17:00 +30°C° 0 mm 3 mps 702 mmHg 30%
    18:00 +28°C° 0 mm 3 mps 702 mmHg 36%
    19:00 +26°C° 0 mm 3 mps 703 mmHg 42%
    20:00 +24°C° 0 mm 3 mps 703 mmHg 48%
    21:00 +22°C° 0 mm 3 mps 703 mmHg 56%
    22:00 +21°C° 0 mm 3 mps 703 mmHg 63%
    23:00 +20°C° 0 mm 3 mps 703 mmHg 71%

    Day after tomorrow, 18 January, Friday

    Time Temperature Precipitation Wind Pressure Humidity
    00:00 +20°C° 0 mm 3 mps 703 mmHg 75%
    01:00 +19°C° 0 mm 3 mps 703 mmHg 79%
    02:00 +18°C° 0 mm 2 mps 702 mmHg 82%
    03:00 +18°C° 0 mm 2 mps 702 mmHg 86%
    04:00 +17°C° 0 mm 2 mps 702 mmHg 89%
    05:00 +17°C° 0 mm 2 mps 702 mmHg 93%
    06:00 +18°C° 0 mm 2 mps 703 mmHg 88%
    07:00 +19°C° 0 mm 2 mps 704 mmHg 83%
    08:00 +20°C° 0 mm 2 mps 704 mmHg 78%
    09:00 +23°C° 0 mm 2 mps 705 mmHg 63%
    10:00 +26°C° 0 mm 3 mps 705 mmHg 49%
    11:00 +28°C° 0 mm 3 mps 705 mmHg 34%
    12:00 +30°C° 0 mm 3 mps 704 mmHg 30%
    13:00 +31°C° 0 mm 3 mps 703 mmHg 26%
    14:00 +33°C° 0 mm 3 mps 703 mmHg 22%
    15:00 +31°C° 0 mm 3 mps 702 mmHg 25%
    16:00 +30°C° 0 mm 3 mps 702 mmHg 27%
    17:00 +30°C° 0 mm 3 mps 702 mmHg 29%
    18:00 +28°C° 0 mm 3 mps 703 mmHg 34%
    19:00 +26°C° 0 mm 3 mps 703 mmHg 39%
    20:00 +23°C° 0 mm 4 mps 704 mmHg 44%
    21:00 +22°C° 0 mm 4 mps 704 mmHg 51%
    22:00 +21°C° 0 mm 4 mps 704 mmHg 58%
    23:00 +21°C° 0 mm 4 mps 704 mmHg 65%

    19 January, Saturday

    Time Temperature Precipitation Wind Pressure Humidity
    00:00 +20°C° 0 mm 3 mps 703 mmHg 71%
    01:00 +19°C° 0 mm 3 mps 703 mmHg 77%
    02:00 +18°C° 0 mm 2 mps 702 mmHg 83%
    03:00 +18°C° 0 mm 2 mps 702 mmHg 85%
    04:00 +17°C° 0 mm 2 mps 702 mmHg 87%
    05:00 +17°C° 0 mm 2 mps 702 mmHg 89%
    06:00 +18°C° 0 mm 2 mps 703 mmHg 79%
    07:00 +19°C° 0 mm 2 mps 704 mmHg 70%
    08:00 +21°C° 0 mm 2 mps 705 mmHg 60%
    09:00 +24°C° 0 mm 3 mps 705 mmHg 47%
    10:00 +27°C° 0 mm 4 mps 705 mmHg 34%
    11:00 +30°C° 0 mm 5 mps 705 mmHg 21%
    12:00 +32°C° 0 mm 5 mps 704 mmHg 20%
    13:00 +32°C° 0 mm 5 mps 703 mmHg 19%
    14:00 +33°C° 0 mm 5 mps 703 mmHg 18%
    15:00 +32°C° 0 mm 4 mps 703 mmHg 21%
    16:00 +30°C° 0 mm 4 mps 703 mmHg 25%
    17:00 +29°C° 0 mm 4 mps 702 mmHg 28%
    18:00 +27°C° 0 mm 4 mps 703 mmHg 34%
    19:00 +26°C° 0 mm 4 mps 703 mmHg 41%
    20:00 +23°C° 0 mm 4 mps 704 mmHg 47%
    21:00 +22°C° 0 mm 4 mps 704 mmHg 52%
    22:00 +21°C° 0 mm 4 mps 704 mmHg 57%
    23:00 +20°C° 0 mm 3 mps 704 mmHg 62%

    20 January, Sunday

    Time Temperature Precipitation Wind Pressure Humidity
    00:00 +19°C° 0 mm 3 mps 704 mmHg 66%
    01:00 +19°C° 0 mm 2 mps 703 mmHg 69%
    02:00 +18°C° 0 mm 2 mps 703 mmHg 72%
    03:00 +17°C° 0 mm 2 mps 703 mmHg 69%
    04:00 +17°C° 0 mm 2 mps 703 mmHg 66%
    05:00 +16°C° 0 mm 1 mps 703 mmHg 64%
    06:00 +18°C° 0 mm 2 mps 704 mmHg 56%
    07:00 +19°C° 0 mm 2 mps 704 mmHg 49%
    08:00 +20°C° 0 mm 2 mps 705 mmHg 41%
    09:00 +24°C° 0 mm 3 mps 705 mmHg 33%
    10:00 +27°C° 0 mm 4 mps 705 mmHg 26%
    11:00 +29°C° 0 mm 4 mps 705 mmHg 18%
    12:00 +30°C° 0 mm 4 mps 704 mmHg 17%
    13:00 +32°C° 0 mm 4 mps 704 mmHg 16%
    14:00 +33°C° 0 mm 4 mps 703 mmHg 16%
    15:00 +32°C° 0 mm 4 mps 703 mmHg 19%
    16:00 +30°C° 0 mm 4 mps 703 mmHg 23%
    17:00 +29°C° 0 mm 3 mps 703 mmHg 26%
    18:00 +27°C° 0 mm 3 mps 703 mmHg 32%
    19:00 +25°C° 0 mm 3 mps 704 mmHg 37%
    20:00 +23°C° 0 mm 4 mps 704 mmHg 43%
    21:00 +22°C° 0 mm 4 mps 704 mmHg 49%
    22:00 +21°C° 0 mm 4 mps 704 mmHg 54%
    23:00 +20°C° 0 mm 4 mps 704 mmHg 60%

    21 January, Monday

    Time Temperature Precipitation Wind Pressure Humidity
    00:00 +20°C° 0 mm 3 mps 704 mmHg 64%
    01:00 +19°C° 0 mm 3 mps 703 mmHg 67%
    02:00 +18°C° 0 mm 2 mps 703 mmHg 71%
    03:00 +17°C° 0 mm 2 mps 703 mmHg 70%
    04:00 +17°C° 0 mm 2 mps 703 mmHg 69%
    05:00 +16°C° 0 mm 1 mps 703 mmHg 68%
    06:00 +19°C° 0 mm 1 mps 703 mmHg 61%
    07:00 +20°C° 0 mm 1 mps 704 mmHg 54%
    08:00 +20°C° 0 mm 2 mps 705 mmHg 47%
    09:00 +23°C° 0 mm 2 mps 705 mmHg 37%
    10:00 +26°C° 0 mm 2 mps 705 mmHg 27%
    11:00 +28°C° 0 mm 3 mps 705 mmHg 18%
    12:00 +29°C° 0 mm 3 mps 704 mmHg 16%
    13:00 +30°C° 0 mm 3 mps 704 mmHg 15%
    14:00 +31°C° 0 mm 3 mps 703 mmHg 13%
    15:00 +31°C° 0 mm 3 mps 703 mmHg 15%
    16:00 +30°C° 0 mm 3 mps 702 mmHg 17%
    17:00 +29°C° 0 mm 3 mps 702 mmHg 20%
    18:00 +27°C° 0 mm 3 mps 703 mmHg 23%
    19:00 +25°C° 0 mm 3 mps 703 mmHg 26%
    20:00 +22°C° 0 mm 3 mps 703 mmHg 28%
    21:00 +21°C° 0 mm 3 mps 703 mmHg 36%
    22:00 +21°C° 0 mm 4 mps 703 mmHg 44%
    23:00 +20°C° 0 mm 4 mps 703 mmHg 52%
    Show more